Torna al catalogo

COSMOS 2499 DEB

AttivoPO
NORAD 50802·DEBRIS·🇷🇺 Russia

Lanciato May 23, 2014 da Plesetsk Cosmodrome

Loading…

Prossimi Passaggi (prossime 24 ore)

TLE

ObsoletoSource: Space-Track

Epoca: Aug 17, 2026, 02:38 UTC

1 50802U 14028AC  26229.11010771  .00004452  00000-0  88604-2 0  9992
2 50802  82.5548 178.1532 0325283  24.2333 337.3704 13.16573934227185

Traccia COSMOS 2499 DEB in tempo reale con AllMySat

Download on the App Store